DW0231 Weather Reports


Display with metric or nautical units.
time (UTC)temp
F
wind
direction
speed
MPH
gust
MPH
rain 1hr
in
rain 24hr
in
rain mn
in
humidity
%
barometer
mb
20260831024508 67 350 0.0 0.0 0.00 0.00 0.17 62 1008.8
20260831023111 69 351 0.0 0.0 0.00 0.00 0.17 61 1008.7
20260831021550 70 350 0.0 0.0 0.00 0.00 0.17 59 1008.5
20260831020012 72 351 0.0 0.0 0.00 0.00 0.17 55 1008.4
20260831014633 74 350 0.0 0.0 0.00 0.00 0.17 52 1008.3
20260831013107 75 351 0.0 0.0 0.00 0.00 0.17 47 1008.4
20260831011526 76 350 1.0 0.0 0.00 0.00 0.17 43 1008.4
20260831010012 76 44 1.0 0.0 0.00 0.00 0.17 42 1008.5
20260831004503 77 44 0.0 0.0 0.00 0.00 0.17 45 1008.5
20260831003036 77 44 0.0 0.0 0.00 0.00 0.17 45 1008.7
20260831001521 77 44 0.0 0.0 0.00 0.00 0.17 45 1008.5
20260831000124 78 44 1.0 0.0 0.00 0.00 0.17 44 1008.4
20260830234602 77 72 0.0 0.0 0.00 0.00 0.17 46 1008.6
20260830233015 74 72 3.0 0.0 0.00 0.00 0.17 50 1008.7
20260830231614 74 138 1.0 0.0 0.00 0.00 0.17 62 1008.9
20260830230028 74 75 0.0 0.0 0.00 0.00 0.17 58 1008.7
20260830224511 74 76 0.0 0.0 0.00 0.00 0.17 56 1008.8
20260830223006 74 76 1.0 0.0 0.00 0.00 0.17 57 1008.9
20260830221636 73 76 1.0 0.0 0.00 0.00 0.17 62 1008.9
20260830220054 72 75 0.0 0.0 0.00 0.00 0.17 61 1009.1
20260830214539 72 76 0.0 0.0 0.00 0.00 0.17 63 1009.1
20260830213033 72 75 0.0 0.0 0.00 0.00 0.17 64 1009.2
20260830211514 74 15 0.0 0.0 0.00 0.00 0.17 62 1009.4
20260830210002 75 15 0.0 0.0 0.00 0.00 0.16 53 1009.6
20260830204550 76 360 3.0 0.0 0.00 0.00 0.16 51 1009.5
20260830203026 76 40 3.0 0.0 0.00 0.00 0.16 47 1010.0
20260830201511 77 355 3.0 0.0 0.00 0.00 0.16 49 1009.9
20260830200018 80 35 2.0 0.0 0.00 0.00 0.16 46 1009.8
20260830194510 80 213 2.0 0.0 0.00 0.00 0.16 45 1010.0
20260830193121 79 10 2.0 0.0 0.00 0.00 0.16 43 1009.8
20260830191609 78 129 1.0 0.0 0.00 0.00 0.16 51 1010.0
20260830190049 77 130 1.0 0.0 0.00 0.00 0.16 51 1010.3
20260830184524 76 129 1.0 0.0 0.00 0.00 0.16 53 1010.5
20260830183025 75 128 1.0 0.0 0.00 0.00 0.16 54 1010.7
20260830181516 74 128 0.0 0.0 0.00 0.00 0.16 56 1010.8
20260830180118 73 128 0.0 0.0 0.00 0.00 0.16 57 1010.9
20260830174539 72 128 1.0 0.0 0.00 0.00 0.16 60 1010.8
20260830173015 71 128 0.0 0.0 0.00 0.00 0.16 63 1011.0
20260830171633 69 128 2.0 0.0 0.00 0.00 0.16 62 1010.8
20260830170113 68 127 1.0 0.0 0.00 0.00 0.16 71 1010.8
20260830164519 66 126 0.0 0.0 0.00 0.00 0.16 80 1010.6
20260830163112 65 126 2.0 0.0 0.00 0.00 0.16 83 1010.7
20260830161514 64 82 0.0 0.0 0.00 0.00 0.16 86 1010.5
20260830160120 63 82 0.0 0.0 0.00 0.00 0.16 89 1010.4
20260830154539 62 82 0.0 0.0 0.00 0.00 0.16 89 1010.3
20260830153031 61 82 0.0 0.0 0.00 0.00 0.16 90 1010.5
20260830151514 61 82 0.0 0.0 0.00 0.00 0.16 90 1010.5
20260830150130 60 82 0.0 0.0 0.00 0.00 0.16 90 1010.6
20260830144614 60 82 0.0 0.0 0.00 0.00 0.16 90 1010.7
20260830143108 59 82 0.0 0.0 0.00 0.00 0.16 89 1010.6
20260830141546 58 82 0.0 0.0 0.00 0.00 0.16 89 1010.4
20260830140036 58 82 0.0 0.0 0.00 0.00 0.16 89 1010.4
20260830134536 59 82 0.0 0.0 0.00 0.00 0.16 88 1009.9
20260830133023 59 82 0.0 0.0 0.00 0.00 0.16 88 1010.1
20260830131633 59 82 0.0 0.0 0.00 0.00 0.16 88 1010.0
20260830130109 59 82 0.0 0.0 0.00 0.00 0.16 87 1010.0
20260830124546 59 82 0.0 0.0 0.00 0.00 0.16 87 1010.0
20260830123039 59 82 0.0 0.0 0.00 0.00 0.15 86 1009.6
20260830121535 59 82 0.0 0.0 0.00 0.00 0.15 85 1009.6
20260830120016 59 82 1.0 0.0 0.00 0.00 0.15 83 1009.3
20260830114617 60 82 2.0 0.0 0.00 0.00 0.15 81 1010.5
20260830113038 60 172 0.0 0.0 0.00 0.00 0.00 79 1010.4
20260830111540 60 18 0.0 0.0 0.00 0.00 0.00 79 1008.5
20260830110011 59 18 0.0 0.0 0.00 0.00 0.00 78 1009.0
20260830104629 59 19 0.0 0.0 0.00 0.00 0.00 78 1009.1
20260830103050 59 19 0.0 0.0 0.00 0.00 0.00 77 1009.4
20260830101523 59 19 1.0 0.0 0.00 0.00 0.00 76 1009.2
20260830100021 59 19 0.0 0.0 0.00 0.00 0.00 78 1008.9
20260830094517 59 18 1.0 0.0 0.00 0.00 0.00 78 1009.5
20260830093006 60 19 0.0 0.0 0.00 0.00 0.00 78 1009.7
20260830091502 60 19 0.0 0.0 0.00 0.00 0.00 76 1009.6
20260830090058 61 18 0.0 0.0 0.00 0.00 0.00 74 1009.1
20260830084519 62 18 0.0 0.0 0.00 0.00 0.00 71 1009.4
20260830083012 63 19 1.0 0.0 0.00 0.00 0.00 67 1009.2
20260830081611 63 19 1.0 0.0 0.00 0.00 0.00 66 1009.4
20260830080034 63 18 0.0 0.0 0.00 0.00 0.00 65 1009.4
20260830074526 64 18 2.0 0.0 0.00 0.00 0.00 65 1009.5
20260830073017 63 19 1.0 0.0 0.00 0.00 0.00 65 1008.8
20260830071510 64 360 0.0 0.0 0.00 0.00 0.00 64 1009.5
20260830070123 64 360 0.0 0.0 0.00 0.00 0.75 62 1008.9
20260830064549 66 360 0.0 0.0 0.00 0.00 0.75 60 1008.6
20260830063041 67 360 1.0 0.0 0.00 0.00 0.75 57 1008.1
20260830061516 69 360 0.0 0.0 0.00 0.00 0.75 53 1008.0
20260830060132 71 360 2.0 0.0 0.00 0.00 0.75 49 1007.8
20260830054610 69 119 3.0 0.0 0.00 0.00 0.75 48 1006.9
20260830053019 64 93 2.0 0.0 0.00 0.00 0.75 62 1006.9
20260830051522 64 71 6.0 0.0 0.00 0.00 0.75 64 1009.0
20260830050014 66 217 8.0 0.0 0.00 0.00 0.73 61 1010.7
20260830044634 69 241 4.0 0.0 0.00 0.00 0.72 57 1009.8
20260830043054 69 209 5.0 0.0 0.00 0.00 0.72 58 1009.0
20260830041541 64 88 1.0 0.0 0.00 0.00 0.72 71 1007.9
20260830040022 64 74 1.0 0.0 0.00 0.00 0.72 76 1008.7
20260830034516 64 121 0.0 0.0 0.00 0.00 0.72 76 1008.8
20260830033125 64 121 0.0 0.0 0.00 0.00 0.72 75 1007.8
20260830031542 64 121 0.0 0.0 0.00 0.00 0.72 74 1006.9
20260830030040 65 121 0.0 0.0 0.00 0.00 0.72 73 1006.7